Weather History for Golovin, AK

Change the Weather History Date:

Sunday, June 16, 2013

  Actual Average Record
Temperature  
Mean Temperature 60 °F -  
Max Temperature 71 °F - - ()
Min Temperature 48 °F - - ()
Degree Days  
Heating Degree Days 6    
Growing Degree Days 10 (Base 50)    
Moisture  
Dew Point 53 °F    
Average Humidity 83    
Maximum Humidity 100    
Minimum Humidity 56    
Precipitation  
Precipitation 0.00 in - - ()
Sea Level Pressure  
Sea Level Pressure 30.27 in    
Wind  
Wind Speed 5 mph (West)    
Max Wind Speed 8 mph    
Max Gust Speed -    
Visibility 7 miles    
Events      
T = Trace of Precipitation, MM = Missing Value Source: NWS Daily Summary

Daily Weather History Graph

Daily Weather History Graph

Search for Another Location

Airport:

Trip Planner

Search our weather history database for the weather conditions in past years. The results will help you decide how hot, cold, wet, or windy it might be!

Date:

Astronomy

Jun. 16, 2013 Rise Set
Actual Time 4:09 AM AKDT 1:36 AM AKDT
Civil Twilight Sun does not rise Sun does not rise
Nautical Twilight Sun does not rise Sun does not rise
Astronomical Twilight Sun does not rise Sun does not rise
Moon 3:28 PM AKDT (6/16) 2:30 AM AKDT (6/16)
Length of Visible Light 24h 00m
Length of Day
21h 27m
Waxing Crescent, 51% of the Moon is Illuminated
Jun 16
Waxing Crescent
Jun 23
Full
Jun 29
Last Quarter
Jul 7
New
Jul 15
First Quarter

Hourly Weather History & Observations

Time (AKDT) Temp. Dew Point Humidity Pressure Visibility Wind Dir Wind Speed Gust Speed Precip Events Conditions
12:16 AM 48.2 °F 48.2 °F 100% 30.22 in 3.0 mi South 5.8 mph - N/A   Overcast
12:36 AM 48.2 °F 48.2 °F 100% 30.22 in 1.8 mi South 5.8 mph - N/A   Overcast
12:56 AM 48.2 °F 48.2 °F 100% 30.23 in 1.2 mi SSE 4.6 mph - N/A   Overcast
1:16 AM 48.2 °F 46.4 °F 93% 30.23 in 1.0 mi SE 4.6 mph - N/A   Overcast
1:36 AM 48.2 °F 48.2 °F 100% 30.23 in 0.8 mi ESE 4.6 mph - N/A   Overcast
1:56 AM 48.2 °F 48.2 °F 100% 30.24 in 3.0 mi ESE 6.9 mph - N/A   Overcast
2:16 AM 48.2 °F 48.2 °F 100% 30.24 in 2.5 mi SSE 5.8 mph - N/A   Overcast
2:36 AM 48.2 °F 48.2 °F 100% 30.24 in 1.8 mi SSE 4.6 mph - N/A   Overcast
2:56 AM 48.2 °F 48.2 °F 100% 30.25 in 0.5 mi South 4.6 mph - N/A   Overcast
3:16 AM 48.2 °F 48.2 °F 100% 30.25 in 0.5 mi SE 3.5 mph - N/A   Overcast
3:36 AM 48.2 °F 46.4 °F 93% 30.25 in 0.5 mi ESE 4.6 mph - N/A   Overcast
3:56 AM 48.2 °F 48.2 °F 100% 30.26 in 0.8 mi SE 3.5 mph - N/A   Overcast
4:16 AM 50.0 °F 50.0 °F 100% 30.26 in 0.8 mi Calm Calm - N/A   Overcast
4:36 AM 50.0 °F 50.0 °F 100% 30.26 in 0.5 mi Calm Calm - N/A   Overcast
4:56 AM 51.8 °F 50.0 °F 94% 30.26 in 4.0 mi ESE 3.5 mph - N/A   Overcast
5:16 AM 51.8 °F 50.0 °F 94% 30.27 in 0.5 mi SE 4.6 mph - N/A   Overcast
5:36 AM 51.8 °F 51.8 °F 100% 30.28 in 0.2 mi SE 4.6 mph - N/A   Overcast
5:56 AM 51.8 °F 51.8 °F 100% 30.28 in 0.5 mi South 3.5 mph - N/A   Overcast
6:16 AM 51.8 °F 50.0 °F 94% 30.28 in 3.0 mi Calm Calm - N/A   Overcast
6:36 AM 51.8 °F 50.0 °F 94% 30.28 in 10.0 mi Calm Calm - N/A   Overcast
6:56 AM 51.8 °F 50.0 °F 94% 30.28 in 8.0 mi Calm Calm - N/A   Overcast
7:16 AM 53.6 °F 51.8 °F 94% 30.29 in 10.0 mi Calm Calm - N/A   Overcast
7:36 AM 53.6 °F 51.8 °F 94% 30.29 in 10.0 mi Calm Calm - N/A   Overcast
7:56 AM 51.8 °F 51.8 °F 100% 30.29 in 0.5 mi WNW 5.8 mph - N/A   Overcast
8:16 AM 51.8 °F 51.8 °F 100% 30.29 in 9.0 mi NW 5.8 mph - N/A   Overcast
8:36 AM 53.6 °F 51.8 °F 94% 30.29 in 4.0 mi NW 5.8 mph - N/A   Overcast
8:56 AM 53.6 °F 51.8 °F 94% 30.30 in 1.2 mi NW 5.8 mph - N/A   Overcast
9:16 AM 53.6 °F 51.8 °F 94% 30.30 in 2.5 mi WNW 5.8 mph - N/A   Overcast
9:36 AM 51.8 °F 51.8 °F 100% 30.31 in 0.5 mi West 8.1 mph - N/A   Overcast
9:56 AM 51.8 °F 50.0 °F 94% 30.31 in 0.8 mi WNW 5.8 mph - N/A   Overcast
10:16 AM 55.4 °F 53.6 °F 94% 30.31 in 10.0 mi NW 5.8 mph - N/A   Mostly Cloudy
10:36 AM 55.4 °F 53.6 °F 94% 30.31 in 10.0 mi WNW 5.8 mph - N/A   Partly Cloudy
10:56 AM 53.6 °F 53.6 °F 100% 30.31 in 10.0 mi WNW 6.9 mph - N/A   Clear
11:16 AM 55.4 °F 53.6 °F 94% 30.31 in 10.0 mi WNW 6.9 mph - N/A   Clear
11:36 AM 55.4 °F 53.6 °F 94% 30.32 in 10.0 mi WNW 4.6 mph - N/A   Clear
11:56 AM 59.0 °F 55.4 °F 88% 30.31 in 10.0 mi WNW 4.6 mph - N/A   Clear
12:16 PM 59.0 °F 55.4 °F 88% 30.31 in 10.0 mi NW 5.8 mph - N/A   Clear
12:36 PM 59.0 °F 53.6 °F 82% 30.31 in 10.0 mi NW 5.8 mph - N/A   Clear
12:56 PM 60.8 °F 53.6 °F 77% 30.31 in 10.0 mi WNW 4.6 mph - N/A   Clear
1:16 PM 62.6 °F 55.4 °F 77% 30.31 in 10.0 mi WNW 5.8 mph - N/A   Clear
1:36 PM 62.6 °F 55.4 °F 77% 30.31 in 10.0 mi WNW 6.9 mph - N/A   Clear
1:56 PM 62.6 °F 55.4 °F 77% 30.31 in 10.0 mi WNW 6.9 mph - N/A   Clear
2:16 PM 64.4 °F 55.4 °F 73% 30.31 in 10.0 mi West 6.9 mph - N/A   Clear
2:36 PM 64.4 °F 55.4 °F 73% 30.31 in 10.0 mi WNW 5.8 mph - N/A   Clear
2:56 PM 66.2 °F 55.4 °F 68% 30.30 in 10.0 mi WNW 5.8 mph - N/A   Clear
3:16 PM 66.2 °F 55.4 °F 68% 30.30 in 10.0 mi WNW 5.8 mph - N/A   Clear
3:36 PM 66.2 °F 55.4 °F 68% 30.29 in 10.0 mi NW 6.9 mph - N/A   Clear
3:56 PM 66.2 °F 55.4 °F 68% 30.29 in 10.0 mi WNW 6.9 mph - N/A   Clear
4:16 PM 66.2 °F 55.4 °F 68% 30.29 in 10.0 mi West 6.9 mph - N/A   Clear
4:36 PM 69.8 °F 55.4 °F 60% 30.28 in 10.0 mi WNW 8.1 mph - N/A   Clear
4:56 PM 69.8 °F 55.4 °F 60% 30.28 in 10.0 mi NW 6.9 mph - N/A   Clear
5:16 PM 69.8 °F 55.4 °F 60% 30.27 in 10.0 mi WNW 5.8 mph - N/A   Clear
5:36 PM 69.8 °F 53.6 °F 56% 30.27 in 10.0 mi WNW 6.9 mph - N/A   Clear
5:56 PM 71.6 °F 55.4 °F 57% 30.27 in 10.0 mi WNW 5.8 mph - N/A   Clear
6:16 PM 66.2 °F 53.6 °F 64% - 10.0 mi South 4.6 mph - N/A   Clear
6:36 PM 64.4 °F 55.4 °F 73% - 10.0 mi South 3.5 mph - N/A   Clear
6:56 PM 66.2 °F 55.4 °F 68% 30.26 in 10.0 mi Calm Calm - N/A   Clear
7:16 PM 69.8 °F 55.4 °F 60% 30.25 in 10.0 mi Calm Calm - N/A   Clear
7:36 PM 69.8 °F 55.4 °F 60% 30.25 in 10.0 mi West 5.8 mph - N/A   Clear
7:56 PM 66.2 °F 55.4 °F 68% 30.25 in 10.0 mi Calm Calm - N/A   Clear
8:16 PM 69.8 °F 55.4 °F 60% 30.24 in 10.0 mi West 3.5 mph - N/A   Clear
8:36 PM 69.8 °F 57.2 °F 64% 30.24 in 10.0 mi Calm Calm - N/A   Clear
8:56 PM 68.0 °F 55.4 °F 64% 30.24 in 10.0 mi WNW 3.5 mph - N/A   Clear
9:16 PM 69.8 °F 55.4 °F 60% 30.23 in 10.0 mi West 4.6 mph - N/A   Clear
9:36 PM 66.2 °F 55.4 °F 68% 30.23 in 10.0 mi WNW 3.5 mph - N/A   Clear
9:56 PM 66.2 °F 55.4 °F 68% 30.23 in 10.0 mi Calm Calm - N/A   Clear
10:16 PM 60.8 °F 53.6 °F 77% 30.23 in 10.0 mi Calm Calm - N/A   Clear
10:36 PM 60.8 °F 53.6 °F 77% 30.23 in 10.0 mi Calm Calm - N/A   Clear
10:56 PM 62.6 °F 55.4 °F 77% 30.23 in 10.0 mi Calm Calm - N/A   Clear
11:16 PM 64.4 °F 57.2 °F 77% 30.23 in 10.0 mi NNE 4.6 mph - N/A   Clear
11:36 PM 64.4 °F 55.4 °F 73% 30.23 in 10.0 mi North 6.9 mph - N/A   Clear
11:56 PM 64.4 °F 55.4 °F 73% 30.23 in 10.0 mi North 5.8 mph - N/A   Clear